Weather reports worldwide

Advertisment
Geisenheim, Germany (10628): temperature & dewpoint: 10.01.2018 08:00:00 - 16.01.2018 08:00:00 (CET)Geisenheim, Germany (10628): temperature 5cm & temperature -5cm: 10.01.2018 08:00:00 - 16.01.2018 08:00:00 (CET)Geisenheim, Germany (10628): temperature -20cm & temperature -100cm: 10.01.2018 08:00:00 - 16.01.2018 08:00:00 (CET)Geisenheim, Germany (10628): wind speed & gusts: 10.01.2018 08:00:00 - 16.01.2018 08:00:00 (CET)Geisenheim, Germany (10628): wind direction: 10.01.2018 08:00:00 - 16.01.2018 08:00:00 (CET)Geisenheim, Germany (10628): reduced air pressure: 10.01.2018 08:00:00 - 16.01.2018 08:00:00 (CET)Geisenheim, Germany (10628): visibility: 10.01.2018 08:00:00 - 16.01.2018 08:00:00 (CET)Geisenheim, Germany (10628): sunshine duration: 10.01.2018 08:00:00 - 16.01.2018 08:00:00 (CET)Geisenheim, Germany (10628): precipitation: 10.01.2018 08:00:00 - 16.01.2018 08:00:00 (CET)
Date & Time tt [°C] td [°C] tt 5cm [°C] tt -5cm [°C] tt -20cm [°C] tt -100cm [°C] ff [km/h] ff [kn] fx [km/h] fx [kn] dd ppp [hPa] vv [km] sd [min] rr [mm]
16.01.2018 08:00:00 6,4 4,2 4,0 3,8 4,1 6,8 7 4 16 8 SW 995,3 70 0 0,1
16.01.2018 07:00:00 6,1 4,3 4,8 3,6 4,1 6,8 10 5 17 9 W 995,5 24 0 0,1
16.01.2018 06:00:00 5,4 3,2 2,5 3,7 4,1 6,9 3 2 8 4 SSE 996,0 70 0 0,0
16.01.2018 05:00:00 6,1 3,0 3,1 4,1 4,1 6,9 5 3 50 27 WNW 996,6 70 0 0,0
16.01.2018 04:00:00 7,3 3,4 5,7 4,3 4,0 6,9 14 8 30 16 W 997,5 41 0 0,0
16.01.2018 03:00:00 8,0 3,3 6,2 4,2 3,9 6,9 13 7 41 22 WSW 997,8 70 0 0,0
16.01.2018 02:00:00 6,9 5,3 5,3 4,3 3,8 6,9 3 2 13 7 SSW 997,6 26 0 0,0
16.01.2018 01:00:00 6,6 5,4 5,4 4,1 3,7 6,9 8 5 28 15 SW 997,7 30 0 0,3
16.01.2018 00:00:00 6,5 4,7 5,2 3,9 3,6 6,9 16 9 30 16 SW 998,2 22 0 0,1
15.01.2018 23:00:00 6,2 3,5 4,7 3,7 3,5 6,9 12 6 31 17 SW 998,9 70 0 0,0
15.01.2018 22:00:00 5,8 3,2 4,4 3,5 3,4 7,0 19 10 36 19 SSW 999,8 70 0 0,0
15.01.2018 21:00:00 5,6 3,2 4,3 3,4 3,3 7,0 19 10 32 18 SSW 1001,0 59 0 0,6
15.01.2018 20:00:00 5,8 3,2 4,3 3,1 3,2 7,0 18 10 31 17 SSW 1002,1 11 0 0,7
15.01.2018 19:00:00 5,8 3,8 4,2 2,7 3,1 7,0 9 5 18 10 S 1003,3 9 0 0,4
15.01.2018 18:00:00 4,7 2,7 3,5 2,5 3,0 7,0 5 3 18 10 S 1005,3 10 0 0,1
15.01.2018 17:00:00 3,5 1,7 2,7 2,3 3,0 7,0 12 6 18 10 ENE 1007,1 3,4 0 0,1
15.01.2018 16:00:00 3,1 0,7 2,7 2,1 2,9 7,0 10 5 23 13 NE 1008,4 7 0 0,0
15.01.2018 15:00:00 2,2 -0,1 2,2 1,8 2,9 7,0 11 6 18 10 ENE 1010,1 6 0 0,0
15.01.2018 14:00:00 2,0 -0,2 2,2 1,3 2,9 7,0 10 6 16 9 E 1012,7 5 0 0,0
15.01.2018 13:00:00 1,7 -0,5 2,0 0,8 2,9 7,0 8 4 17 9 E 1014,2 6 0 0,0
15.01.2018 12:00:00 1,3 -0,5 1,3 0,7 3,0 7,0 9 5 14 8 E 1015,8 5 0 0,0
15.01.2018 11:00:00 1,1 -0,6 0,9 0,7 3,0 7,1 7 4 16 8 ESE 1017,1 5 0 0,0
15.01.2018 10:00:00 0,7 -0,9 0,3 0,7 3,1 7,1 7 4 16 9 ESE 1017,9 5 0 0,0
15.01.2018 09:00:00 0,5 -1,3 -0,1 0,7 3,1 7,1 7 4 12 6 E 1018,5 6 0 0,0
15.01.2018 08:00:00 0,4 -1,5 -0,3 0,8 3,2 7,1 5 3 11 6 E 1019,0 7 0 0,0
15.01.2018 07:00:00 0,4 -1,6 -0,5 0,8 3,3 7,1 7 4 14 7 E 1019,3 8 0 0,0
15.01.2018 06:00:00 0,2 -1,6 -0,4 0,8 3,4 7,1 7 4 16 9 E 1019,7 9 0 0,0
15.01.2018 05:00:00 -0,1 -1,8 -0,5 0,8 3,5 7,1 8 4 11 6 ENE 1020,2 9 0 0,0
15.01.2018 04:00:00 -0,7 -2,2 -1,5 0,8 3,6 7,1 4 2 8 4 ESE 1021,2 9 0 0,0
15.01.2018 03:00:00 -0,8 -2,5 -3,7 0,9 3,7 7,1 4 2 11 6 E 1021,6 10 0 0,0
15.01.2018 02:00:00 -0,5 -2,4 -3,1 1,1 3,8 7,1 5 3 10 5 E 1021,9 10 0 0,0
15.01.2018 01:00:00 -0,3 -2,4 -3,1 1,2 3,9 7,1 4 2 8 4 E 1022,6 11 0 0,0
15.01.2018 00:00:00 0,0 -2,4 -2,4 1,3 4,1 7,1 4 2 16 8 ESE 1022,7 10 0 0,0
14.01.2018 23:00:00 1,0 -2,1 -1,3 1,5 4,2 7,1 9 5 16 8 ENE 1023,0 11 0 0,0
14.01.2018 22:00:00 1,0 -1,9 -1,6 1,6 4,4 7,1 9 5 13 7 E 1023,2 11 0 0,0
14.01.2018 21:00:00 1,6 -1,2 -1,0 1,8 4,5 7,1 10 5 13 7 E 1022,9 10 0 0,0
14.01.2018 20:00:00 1,6 -1,4 -1,8 2,3 4,6 7,1 5 3 6 4 E 1023,1 8 0 0,0
14.01.2018 19:00:00 2,9 -1,3 -0,5 3,3 4,7 7,1 5 3 12 6 SSE 1023,0 14 0 0,0
14.01.2018 18:00:00 3,7 -0,9 2,9 3,6 4,7 7,1 8 4 15 8 SSE 1022,8 13 0 0,0
14.01.2018 17:00:00 4,0 -1,2 3,4 4,0 4,6 7,1 10 5 15 8 SSE 1022,7 16 0 0,0
14.01.2018 16:00:00 4,1 -1,3 3,7 4,2 4,6 7,1 10 5 16 8 SE 1022,5 16 0 0,0
14.01.2018 15:00:00 4,1 -1,3 4,9 4,0 4,6 7,1 11 6 18 10 SE 1022,3 16 0 0,0
14.01.2018 14:00:00 3,6 -1,2 3,9 3,7 4,6 7,1 10 5 21 12 ESE 1022,6 14 0 0,0
14.01.2018 13:00:00 3,2 -1,7 3,4 3,4 4,6 7,1 11 6 22 12 ESE 1022,9 13 0 0,0
14.01.2018 12:00:00 2,8 -1,9 3,0 3,1 4,6 7,1 14 7 23 12 E 1023,3 11 0 0,0
14.01.2018 11:00:00 2,6 -1,7 2,5 2,9 4,7 7,1 15 8 27 15 E 1023,8 10 0 0,0
14.01.2018 10:00:00 2,4 -1,7 2,2 2,8 4,8 7,1 15 8 24 13 E 1023,5 10 0 0,0
14.01.2018 09:00:00 2,4 -1,6 1,9 2,9 4,9 7,1 13 7 26 14 E 1023,1 9 0 0,0
14.01.2018 08:00:00 2,5 -1,5 2,0 3,0 5,0 7,1 14 8 28 15 E 1023,0 9 0 0,0
14.01.2018 07:00:00 2,6 -1,3 2,1 3,1 5,0 7,1 13 7 28 15 E 1022,8 11 0 0,0
14.01.2018 06:00:00 2,8 -1,3 2,3 3,3 5,1 7,1 16 9 32 17 E 1022,6 12 0 0,0
14.01.2018 05:00:00 3,3 -0,7 2,7 3,5 5,2 7,1 14 7 25 14 E 1022,4 14 0 0,0
14.01.2018 04:00:00 3,6 -0,2 3,0 3,7 5,3 7,1 13 7 29 16 E 1022,4 14 0 0,0
14.01.2018 03:00:00 3,9 -0,4 3,3 3,8 5,3 7,1 13 7 27 14 E 1022,3 14 0 0,0
14.01.2018 02:00:00 4,1 -0,1 3,4 3,9 5,4 7,1 16 9 33 18 E 1022,4 13 0 0,0
14.01.2018 01:00:00 4,5 0,2 3,7 4,1 5,5 7,1 15 8 29 16 E 1022,6 14 0 0,0
14.01.2018 00:00:00 4,7 0,2 3,8 4,2 5,5 7,1 15 8 28 15 E 1022,9 15 0 0,0
13.01.2018 23:00:00 4,9 0,5 4,1 4,3 5,6 7,1 14 8 32 17 E 1023,1 15 0 0,0
13.01.2018 22:00:00 5,0 0,7 4,2 4,4 5,7 7,1 13 7 27 14 E 1023,2 12 0 0,0
13.01.2018 21:00:00 5,2 0,6 4,4 4,5 5,7 7,1 13 7 27 15 E 1023,5 13 0 0,0
13.01.2018 20:00:00 5,4 0,7 4,5 4,6 5,8 7,1 14 7 30 16 E 1023,6 14 0 0,0
13.01.2018 19:00:00 5,7 0,5 4,6 4,8 5,9 7,1 14 8 27 15 E 1023,5 16 0 0,0
13.01.2018 18:00:00 5,7 0,6 4,7 5,0 5,9 7,1 13 7 27 14 E 1023,6 16 0 0,0
13.01.2018 17:00:00 5,7 0,9 4,7 5,3 5,9 7,1 13 7 32 18 E 1023,9 12 0 0,0
13.01.2018 16:00:00 5,9 0,6 5,3 5,7 5,9 7,1 16 8 34 19 E 1023,9 13 0 0,0
13.01.2018 15:00:00 6,2 0,9 5,9 6,0 5,8 7,1 16 8 32 17 E 1024,4 13 0 0,0
13.01.2018 14:00:00 6,1 0,7 6,5 6,0 5,7 7,1 12 7 24 13 E 1024,9 12 0 0,0
13.01.2018 13:00:00 6,0 1,6 6,8 5,5 5,7 7,1 11 6 21 12 E 1025,6 11 0 0,0
13.01.2018 12:00:00 5,1 2,1 5,4 4,9 5,7 7,1 6 4 12 6 ENE 1026,4 8 0 0,0
13.01.2018 11:00:00 4,5 1,7 4,3 4,6 5,8 7,1 5 3 9 5 E 1026,7 7 0 0,0
13.01.2018 10:00:00 4,3 1,5 3,9 4,5 5,9 7,1 6 3 10 6 ENE 1026,7 8 0 0,0
13.01.2018 09:00:00 4,2 1,0 3,7 4,5 6,0 7,1 8 4 16 8 E 1026,7 9 0 0,0
13.01.2018 08:00:00 3,9 1,4 3,5 4,6 6,1 7,1 9 5 20 11 E 1026,9 7 0 0,0
13.01.2018 07:00:00 4,1 1,5 3,7 4,9 6,1 7,1 11 6 22 12 ESE 1026,9 6 0 0,0
13.01.2018 06:00:00 4,2 1,5 3,9 5,0 6,2 7,1 9 5 20 11 SE 1026,7 7 0 0,0
13.01.2018 05:00:00 4,5 1,9 4,1 5,3 6,3 7,1 8 4 16 9 ESE 1026,9 6 0 0,0
13.01.2018 04:00:00 4,8 2,0 4,4 5,5 6,3 7,1 6 3 11 6 ESE 1027,0 7 0 0,0
13.01.2018 03:00:00 5,2 2,6 4,8 5,6 6,4 7,1 6 4 11 6 SE 1027,3 6 0 0,0
13.01.2018 02:00:00 5,3 2,9 4,9 5,7 6,5 7,1 8 5 13 7 SSE 1027,2 6 0 0,0
13.01.2018 01:00:00 5,6 3,1 4,8 5,9 6,5 7,1 8 5 14 7 SSE 1027,3 7 0 0,0
13.01.2018 00:00:00 5,9 3,9 5,2 6,0 6,5 7,1 9 5 14 8 E 1027,3 6 0 0,0
12.01.2018 23:00:00 6,2 4,7 5,6 6,1 6,6 7,1 5 3 8 4 E 1027,2 6 0 0,0
12.01.2018 22:00:00 6,2 5,3 5,7 6,2 6,6 7,1 2 1 5 3 ENE 1027,0 3,5 0 0,0
12.01.2018 21:00:00 6,3 5,0 5,7 6,3 6,7 7,1 4 2 10 5 E 1026,9 4,6 0 0,0
12.01.2018 20:00:00 6,3 5,2 5,8 6,3 6,7 7,0 5 3 7 4 ENE 1026,7 4,3 0 0,0
12.01.2018 19:00:00 6,2 5,1 5,5 6,5 6,7 7,0 4 2 11 6 NE 1026,6 4,6 0 0,1
12.01.2018 18:00:00 6,1 4,7 5,6 6,8 6,7 7,0 7 4 14 8 NNE 1026,5 6 0 2,4
12.01.2018 17:00:00 7,2 5,3 6,6 7,2 6,7 7,0 4 2 9 5 ENE 1026,3 4,6 0 0,0
12.01.2018 16:00:00 7,3 5,2 7,1 7,6 6,6 7,0 6 3 9 5 E 1026,0 5 0 0,0
12.01.2018 15:00:00 7,6 4,9 7,9 7,9 6,5 7,0 5 3 8 4 ENE 1025,7 7 0 0,0
12.01.2018 14:00:00 7,7 4,8 8,5 8,0 6,3 7,0 4 2 7 4 ESE 1025,6 8 0 0,0
12.01.2018 13:00:00 7,6 4,9 8,7 7,5 6,2 7,0 4 2 8 4 S 1025,9 8 0 0,0
12.01.2018 12:00:00 7,6 4,6 8,0 6,7 6,1 7,0 0 0 5 3 N 1026,2 10 0 0,0
12.01.2018 11:00:00 6,9 5,0 7,0 6,0 6,1 7,0 2 1 5 3 ENE 1026,2 7 0 0,0
12.01.2018 10:00:00 6,4 5,0 6,0 5,6 6,1 7,0 3 2 9 5 ENE 1025,6 7 0 0,0
12.01.2018 09:00:00 6,3 5,0 5,7 5,4 6,2 7,0 6 4 10 5 E 1025,1 7 0 0,0
12.01.2018 08:00:00 6,3 4,7 5,1 5,4 6,2 7,0 3 2 14 8 ENE 1024,6 9 0 0,0
12.01.2018 07:00:00 6,7 4,5 4,8 5,4 6,3 7,0 3 1 6 4 E 1024,1 10 0 0,0
12.01.2018 06:00:00 6,8 4,7 4,9 5,6 6,3 7,0 3 2 15 8 ENE 1023,8 9 0 0,0
12.01.2018 05:00:00 6,9 4,8 5,3 5,6 6,4 7,0 4 2 16 9 S 1023,6 9 0 0,0
12.01.2018 04:00:00 6,7 4,9 5,6 5,6 6,4 7,0 9 5 15 8 NNW 1023,5 8 0 0,0
12.01.2018 03:00:00 6,9 4,6 5,4 5,7 6,5 7,0 6 4 8 5 NNE 1023,3 13 0 0,0
12.01.2018 02:00:00 6,7 4,6 5,2 5,8 6,5 7,0 4 2 12 7 N 1022,6 14 0 0,0
12.01.2018 01:00:00 6,9 4,7 5,5 5,9 6,6 7,0 6 4 12 6 N 1022,5 17 0 0,0
12.01.2018 00:00:00 6,4 4,7 5,2 6,0 6,7 7,0 4 2 11 6 W 1022,2 13 0 0,0
11.01.2018 23:00:00 6,9 5,0 5,4 6,2 6,7 7,0 4 2 8 4 NNW 1021,8 13 0 0,1
11.01.2018 22:00:00 6,7 5,0 5,5 6,3 6,8 7,0 4 2 6 4 NW 1021,2 10 0 0,1
11.01.2018 21:00:00 7,0 5,2 5,6 6,5 6,8 7,0 2 1 6 3 NW 1020,7 15 0 0,0
11.01.2018 20:00:00 7,6 5,3 6,0 6,9 6,8 6,9 4 2 8 4 N 1020,3 11 0 0,0
11.01.2018 19:00:00 7,4 6,0 6,4 7,1 6,8 6,9 4 2 6 3 NE 1019,9 6 0 0,0
11.01.2018 18:00:00 7,6 6,0 6,7 7,4 6,8 6,9 3 2 4 2 NNW 1019,1 7 0 0,0
11.01.2018 17:00:00 7,7 5,9 7,2 7,8 6,7 6,9 0 0 5 3 N 1018,6 8 0 0,0
11.01.2018 16:00:00 8,1 5,8 7,9 8,1 6,6 6,9 4 2 6 4 E 1017,9 10 1 0,0
11.01.2018 15:00:00 8,3 5,9 8,5 8,0 6,4 6,9 4 2 9 5 SSE 1017,3 9 0 0,0
11.01.2018 14:00:00 8,1 5,8 8,7 7,6 6,3 6,9 3 2 5 3 ESE 1016,8 7 0 0,0
11.01.2018 13:00:00 7,6 6,0 8,0 7,0 6,3 6,9 3 2 7 4 ENE 1016,7 4,7 0 0,0
11.01.2018 12:00:00 7,1 6,0 7,3 6,7 6,2 6,9 5 3 10 5 ENE 1016,8 4,3 0 0,0
11.01.2018 11:00:00 6,9 6,1 6,9 6,2 6,2 6,9 6 4 10 5 E 1016,5 3,3 0 0,0
11.01.2018 10:00:00 6,6 6,1 6,2 6,0 6,2 6,9 5 3 9 5 E 1015,9 3,0 0 0,0
11.01.2018 09:00:00 6,4 6,0 5,9 5,9 6,2 6,9 3 2 7 4 ENE 1015,1 2,8 0 0,0
11.01.2018 08:00:00 6,4 5,7 5,7 5,9 6,2 6,9 3 2 9 5 ESE 1014,4 3,5 0 0,0
11.01.2018 07:00:00 6,3 5,9 5,8 5,9 6,3 6,9 5 3 10 6 ENE 1013,8 3,3 0 0,1
11.01.2018 06:00:00 6,3 5,7 5,7 5,9 6,3 6,9 4 2 6 3 E 1013,5 2,9 0 0,0
11.01.2018 05:00:00 6,2 5,4 5,6 5,9 6,3 6,9 4 2 7 4 NNE 1013,1 6 0 0,0
11.01.2018 04:00:00 6,3 5,4 5,6 6,0 6,4 6,9 4 2 7 4 E 1012,7 5 0 0,0
11.01.2018 03:00:00 6,3 5,3 5,6 6,0 6,4 6,9 4 2 10 5 ENE 1012,7 4,5 0 0,0
11.01.2018 02:00:00 6,4 5,3 5,7 6,0 6,5 6,9 6 3 9 5 ENE 1012,5 9 0 0,0
11.01.2018 01:00:00 6,4 5,2 5,5 6,1 6,5 6,9 5 3 8 4 NE 1012,4 11 0 0,0
11.01.2018 00:00:00 6,7 5,3 5,8 6,4 6,5 6,9 4 2 10 6 NE 1012,4 12 0 0,0
10.01.2018 23:00:00 6,9 5,4 6,1 6,5 6,6 6,9 6 3 9 5 ENE 1012,2 17 0 0,1
10.01.2018 22:00:00 6,9 5,3 6,1 6,5 6,6 6,9 5 3 7 4 NNE 1012,0 20 0 0,2
10.01.2018 21:00:00 7,3 5,4 6,1 6,6 6,7 6,9 4 2 7 4 SSE 1011,8 18 0 0,1
10.01.2018 20:00:00 7,7 4,8 6,1 6,8 6,7 6,9 4 2 7 4 SSE 1011,7 32 0 0,0
10.01.2018 19:00:00 8,3 4,0 6,9 7,0 6,7 6,9 5 3 9 5 S 1011,3 63 0 0,0
10.01.2018 18:00:00 8,6 3,8 7,4 7,3 6,7 6,9 8 5 15 8 SSW 1011,1 39 0 0,0
10.01.2018 17:00:00 9,1 3,8 7,1 7,7 6,6 6,9 3 1 15 8 SE 1010,9 52 0 0,0
10.01.2018 16:00:00 9,5 3,6 8,4 8,3 6,4 6,9 9 5 16 8 SSW 1010,7 51 8 0,0
10.01.2018 15:00:00 9,6 3,9 8,7 8,8 6,2 6,9 6 3 12 6 W 1010,2 54 26 0,0
10.01.2018 14:00:00 9,7 4,3 10,0 9,3 5,9 6,9 9 5 14 8 SSW 1010,6 46 18 0,0
10.01.2018 13:00:00 10,2 4,4 13,6 8,1 5,6 6,9 6 4 11 6 SSE 1011,0 30 32 0,0
10.01.2018 12:00:00 8,7 4,4 10,9 6,5 5,6 6,9 5 3 10 5 SE 1012,0 31 56 0,0
10.01.2018 11:00:00 7,4 4,5 8,0 5,5 5,5 6,9 5 3 10 5 ENE 1012,7 24 9 0,0
10.01.2018 10:00:00 6,8 4,6 5,8 5,4 5,5 6,9 7 4 11 6 E 1012,8 26 0 0,0
10.01.2018 09:00:00 6,7 4,8 5,8 5,3 5,5 6,9 5 3 13 7 ENE 1012,7 14 0 0,0
10.01.2018 08:00:00 6,5 4,6 5,6 5,3 5,5 6,9 11 6 18 10 ENE 1012,4 10 0 0,0

tt = temperature
td = dewpoint
tt 5cm = temperature 5cm
tt -5cm = temperature -5cm
tt -20cm = temperature -20cm
tt -100cm = temperature -100cm
ff = wind speed
fx = gusts
dd = wind direction
ppp = reduced air pressure
vv = visibility
sd = sunshine duration
rr = precipitation

Next stations